Location: Carnoy
(49.9849°N, 2.7558°E)
Time: 16:50:26
(UTC+00:00)

ATLAS CENTAUR R/B - Pass Details

Date: 24 January 2020
Orbit: 458 x 690 km, 64.6° (Epoch: 06 February)

Event Time Altitude Azimuth Distance (km) Brightness Sun altitude
Rises 19:01:38 0° 315° (NW) 2,761 5.5 -24.2°
Reaches altitude 10° 19:04:01 10° 308° (NW) 1,819 4.6 -24.6°
Maximum altitude 19:07:49 40° 239° (WSW) 775 2.4 -25.2°
Enters shadow 19:08:24 37° 215° (SW) 808 2.4 -25.3°
